| time (UTC) | temp F | wind direction | speed MPH | gust MPH | rain 1hr in | rain 24hr in | rain mn in | humidity % | barometer mb |
| 20260505125038 | 54 | 224 | 2.0 | 8.0 | 0.00 | 0.00 | 0.00 | 90 | 1012.7 |
| 20260505124512 | 54 | 209 | 3.0 | 8.0 | 0.00 | 0.00 | 0.00 | 90 | 1012.7 |
| 20260505124053 | 54 | 203 | 2.0 | 9.0 | 0.00 | 0.00 | 0.00 | 90 | 1012.6 |
| 20260505123506 | 54 | 215 | 4.0 | 9.0 | 0.00 | 0.00 | 0.00 | 90 | 1012.8 |
| 20260505123028 | 54 | 205 | 4.0 | 9.0 | 0.00 | 0.00 | 0.00 | 90 | 1012.7 |
| 20260505122501 | 54 | 217 | 5.0 | 9.0 | 0.00 | 0.00 | 0.00 | 90 | 1012.9 |
| 20260505122046 | 54 | 221 | 3.0 | 9.0 | 0.00 | 0.00 | 0.00 | 90 | 1012.7 |
| 20260505121540 | 54 | 204 | 3.0 | 7.0 | 0.00 | 0.00 | 0.00 | 90 | 1012.6 |
| 20260505121042 | 54 | 228 | 0.0 | 4.0 | 0.00 | 0.00 | 0.00 | 90 | 1012.6 |
| 20260505120608 | 54 | 207 | 0.0 | 6.0 | 0.00 | 0.00 | 0.00 | 90 | 1012.5 |
| 20260505120054 | 53 | 212 | 1.0 | 7.0 | 0.00 | 0.00 | 0.00 | 90 | 1012.6 |
| 20260505115611 | 53 | 219 | 2.0 | 6.0 | 0.00 | 0.00 | 0.00 | 90 | 1012.7 |
| 20260505115043 | 53 | 203 | 1.0 | 6.0 | 0.00 | 0.00 | 0.00 | 90 | 1012.8 |
| 20260505114518 | 53 | 214 | 0.0 | 4.0 | 0.00 | 0.00 | 0.00 | 90 | 1012.8 |
| 20260505114040 | 53 | 215 | 0.0 | 4.0 | 0.00 | 0.00 | 0.00 | 90 | 1012.7 |
| 20260505113502 | 53 | 213 | 0.0 | 4.0 | 0.00 | 0.00 | 0.00 | 90 | 1012.7 |
| 20260505113051 | 53 | 221 | 0.0 | 4.0 | 0.00 | 0.00 | 0.00 | 91 | 1012.7 |
| 20260505112524 | 53 | 212 | 0.0 | 3.0 | 0.00 | 0.00 | 0.00 | 91 | 1012.7 |
| 20260505112047 | 52 | 214 | 0.0 | 6.0 | 0.00 | 0.00 | 0.00 | 91 | 1012.7 |
| 20260505111540 | 52 | 217 | 0.0 | 6.0 | 0.00 | 0.00 | 0.00 | 91 | 1012.7 |
| 20260505111101 | 52 | 202 | 0.0 | 3.0 | 0.00 | 0.00 | 0.00 | 91 | 1012.6 |
| 20260505110527 | 52 | 221 | 0.0 | 5.0 | 0.00 | 0.00 | 0.00 | 91 | 1012.6 |
| 20260505102105 | 51 | 210 | 1.0 | 8.0 | 0.00 | 0.00 | 0.00 | 91 | 1012.6 |
| 20260505101515 | 51 | 221 | 1.0 | 7.0 | 0.00 | 0.00 | 0.00 | 91 | 1012.5 |
| 20260505101150 | 51 | 216 | 1.0 | 7.0 | 0.00 | 0.00 | 0.00 | 91 | 1012.5 |
| 20260505100513 | 51 | 184 | 0.0 | 6.0 | 0.00 | 0.00 | 0.00 | 91 | 1012.5 |
| 20260505100058 | 51 | 210 | 0.0 | 6.0 | 0.00 | 0.00 | 0.00 | 91 | 1012.4 |
| 20260505095550 | 51 | 205 | 1.0 | 6.0 | 0.00 | 0.00 | 0.00 | 92 | 1012.4 |
| 20260505095037 | 51 | 201 | 0.0 | 3.0 | 0.00 | 0.00 | 0.00 | 92 | 1012.2 |
| 20260505094533 | 51 | 217 | 0.0 | 1.0 | 0.00 | 0.00 | 0.00 | 92 | 1012.1 |
| 20260505094056 | 51 | 207 | 0.0 | 1.0 | 0.00 | 0.00 | 0.00 | 92 | 1012.2 |
| 20260505093533 | 51 | 178 | 0.0 | 1.0 | 0.00 | 0.00 | 0.00 | 92 | 1012.1 |
| 20260505093057 | 51 | 216 | 0.0 | 1.0 | 0.00 | 0.00 | 0.00 | 91 | 1012.2 |
| 20260505092510 | 51 | 207 | 0.0 | 4.0 | 0.00 | 0.00 | 0.00 | 91 | 1012.2 |
| 20260505092034 | 52 | 214 | 0.0 | 4.0 | 0.00 | 0.00 | 0.00 | 91 | 1012.1 |
| 20260505091511 | 52 | 210 | 1.0 | 5.0 | 0.00 | 0.00 | 0.00 | 91 | 1012.2 |
| 20260505091056 | 52 | 217 | 0.0 | 6.0 | 0.00 | 0.00 | 0.00 | 91 | 1012.1 |
| 20260505090541 | 52 | 210 | 2.0 | 7.0 | 0.00 | 0.00 | 0.00 | 91 | 1012.1 |
| 20260505090024 | 52 | 221 | 1.0 | 7.0 | 0.00 | 0.00 | 0.00 | 91 | 1012.0 |
| 20260505085512 | 52 | 211 | 1.0 | 8.0 | 0.00 | 0.00 | 0.00 | 91 | 1012.0 |
| 20260505085051 | 52 | 208 | 2.0 | 8.0 | 0.00 | 0.00 | 0.00 | 91 | 1012.0 |
| 20260505084552 | 52 | 223 | 4.0 | 9.0 | 0.00 | 0.00 | 0.00 | 91 | 1012.0 |
| 20260505084018 | 52 | 217 | 5.0 | 9.0 | 0.00 | 0.00 | 0.00 | 91 | 1012.0 |
| 20260505083541 | 52 | 224 | 3.0 | 8.0 | 0.00 | 0.00 | 0.00 | 91 | 1012.0 |
| 20260505083030 | 52 | 205 | 0.0 | 0.0 | 0.00 | 0.00 | 0.00 | 91 | 1012.1 |
| 20260505082606 | 52 | 227 | 0.0 | 4.0 | 0.00 | 0.00 | 0.00 | 91 | 1012.2 |
| 20260505082021 | 52 | 245 | 0.0 | 9.0 | 0.00 | 0.00 | 0.00 | 91 | 1012.2 |
| 20260505081555 | 52 | 217 | 1.0 | 10.0 | 0.00 | 0.00 | 0.00 | 91 | 1012.2 |
| 20260505081007 | 52 | 224 | 3.0 | 11.0 | 0.00 | 0.00 | 0.00 | 91 | 1012.2 |
| 20260505080549 | 52 | 229 | 2.0 | 13.0 | 0.00 | 0.00 | 0.00 | 91 | 1012.2 |
| 20260505080042 | 52 | 205 | 3.0 | 13.0 | 0.00 | 0.00 | 0.00 | 91 | 1012.3 |
| 20260505075523 | 52 | 242 | 3.0 | 11.0 | 0.00 | 0.00 | 0.00 | 91 | 1012.2 |
| 20260505075001 | 52 | 222 | 2.0 | 11.0 | 0.00 | 0.00 | 0.00 | 91 | 1012.2 |
| 20260505074541 | 52 | 226 | 4.0 | 14.0 | 0.00 | 0.00 | 0.00 | 91 | 1012.3 |
| 20260505074007 | 52 | 226 | 5.0 | 14.0 | 0.00 | 0.00 | 0.00 | 91 | 1012.2 |
| 20260505073604 | 52 | 249 | 3.0 | 13.0 | 0.00 | 0.00 | 0.00 | 91 | 1012.2 |
| 20260505073034 | 52 | 223 | 7.0 | 13.0 | 0.00 | 0.00 | 0.00 | 91 | 1012.2 |
| 20260505072501 | 52 | 233 | 5.0 | 11.0 | 0.00 | 0.00 | 0.00 | 91 | 1012.2 |
| 20260505072029 | 52 | 217 | 3.0 | 12.0 | 0.00 | 0.00 | 0.00 | 91 | 1012.2 |
| 20260505071515 | 52 | 229 | 2.0 | 12.0 | 0.00 | 0.00 | 0.00 | 91 | 1012.1 |
| 20260505071052 | 52 | 219 | 2.0 | 10.0 | 0.00 | 0.00 | 0.00 | 91 | 1012.3 |
| 20260505070533 | 52 | 206 | 3.0 | 11.0 | 0.00 | 0.00 | 0.00 | 91 | 1012.2 |
| 20260505070009 | 52 | 229 | 5.0 | 11.0 | 0.00 | 0.00 | 0.00 | 91 | 1012.1 |
| 20260505065557 | 52 | 219 | 4.0 | 12.0 | 0.00 | 0.00 | 0.00 | 91 | 1012.1 |
| 20260505065012 | 52 | 218 | 6.0 | 12.0 | 0.00 | 0.00 | 0.00 | 91 | 1012.1 |
| 20260505064536 | 52 | 224 | 6.0 | 11.0 | 0.00 | 0.00 | 0.00 | 91 | 1012.1 |
| 20260505064006 | 52 | 219 | 5.0 | 13.0 | 0.00 | 0.00 | 0.00 | 91 | 1012.1 |
| 20260505063552 | 52 | 231 | 4.0 | 13.0 | 0.00 | 0.00 | 0.00 | 91 | 1012.1 |
| 20260505063011 | 52 | 245 | 2.0 | 10.0 | 0.00 | 0.00 | 0.00 | 91 | 1012.1 |
| 20260505062537 | 52 | 243 | 2.0 | 11.0 | 0.00 | 0.00 | 0.00 | 91 | 1012.0 |
| 20260505062006 | 52 | 240 | 5.0 | 11.0 | 0.00 | 0.00 | 0.00 | 91 | 1012.2 |
| 20260505061600 | 52 | 243 | 3.0 | 11.0 | 0.00 | 0.00 | 0.00 | 91 | 1012.2 |
| 20260505061030 | 52 | 226 | 1.0 | 8.0 | 0.00 | 0.00 | 0.00 | 91 | 1012.2 |
| 20260505060517 | 52 | 236 | 3.0 | 10.0 | 0.00 | 0.00 | 0.00 | 91 | 1012.2 |
| 20260505060004 | 52 | 231 | 5.0 | 13.0 | 0.00 | 0.00 | 0.00 | 91 | 1012.2 |
| 20260505055552 | 52 | 234 | 5.0 | 13.0 | 0.00 | 0.00 | 0.00 | 91 | 1012.1 |
| 20260505055020 | 52 | 207 | 5.0 | 14.0 | 0.00 | 0.00 | 0.00 | 91 | 1012.1 |
| 20260505054501 | 52 | 231 | 5.0 | 14.0 | 0.00 | 0.00 | 0.00 | 91 | 1012.2 |
| 20260505054041 | 52 | 210 | 4.0 | 13.0 | 0.00 | 0.00 | 0.00 | 91 | 1012.2 |
| 20260505053535 | 52 | 226 | 6.0 | 12.0 | 0.00 | 0.00 | 0.00 | 91 | 1012.1 |
| 20260505053008 | 52 | 218 | 4.0 | 11.0 | 0.00 | 0.00 | 0.00 | 91 | 1012.1 |
| 20260505052554 | 52 | 228 | 3.0 | 11.0 | 0.00 | 0.00 | 0.00 | 91 | 1012.2 |
| 20260505052006 | 52 | 233 | 5.0 | 10.0 | 0.00 | 0.00 | 0.00 | 91 | 1012.2 |
| 20260505051547 | 52 | 250 | 0.0 | 9.0 | 0.00 | 0.00 | 0.00 | 91 | 1012.3 |
| 20260505051006 | 52 | 247 | 1.0 | 10.0 | 0.00 | 0.00 | 0.00 | 91 | 1012.2 |
| 20260505050553 | 52 | 240 | 4.0 | 11.0 | 0.00 | 0.00 | 0.00 | 91 | 1012.2 |
| 20260505041514 | 52 | 224 | 5.0 | 14.0 | 0.00 | 0.00 | 0.00 | 90 | 1012.6 |
| 20260505041024 | 52 | 229 | 6.0 | 14.0 | 0.00 | 0.00 | 0.00 | 90 | 1012.6 |
| 20260505040526 | 52 | 229 | 4.0 | 12.0 | 0.00 | 0.00 | 0.00 | 90 | 1012.7 |
| 20260505040011 | 52 | 221 | 5.0 | 12.0 | 0.00 | 0.00 | 0.00 | 89 | 1012.7 |
| 20260505035556 | 52 | 229 | 3.0 | 16.0 | 0.00 | 0.00 | 0.00 | 89 | 1012.7 |
| 20260505035039 | 52 | 225 | 4.0 | 16.0 | 0.00 | 0.00 | 0.00 | 89 | 1012.7 |
| 20260505034519 | 52 | 218 | 7.0 | 15.0 | 0.00 | 0.00 | 0.00 | 89 | 1012.7 |
| 20260505034058 | 52 | 234 | 6.0 | 15.0 | 0.00 | 0.00 | 0.00 | 89 | 1012.8 |
| 20260505033520 | 52 | 222 | 6.0 | 15.0 | 0.00 | 0.00 | 0.00 | 89 | 1012.8 |
| 20260505033102 | 52 | 224 | 5.0 | 16.0 | 0.00 | 0.00 | 0.00 | 89 | 1012.8 |
| 20260505032542 | 52 | 214 | 7.0 | 16.0 | 0.00 | 0.00 | 0.00 | 89 | 1012.8 |
| 20260505032014 | 52 | 211 | 5.0 | 14.0 | 0.00 | 0.00 | 0.00 | 88 | 1012.7 |
| 20260505031534 | 52 | 223 | 4.0 | 13.0 | 0.00 | 0.00 | 0.00 | 88 | 1012.6 |
| 20260505031018 | 52 | 231 | 3.0 | 13.0 | 0.00 | 0.00 | 0.00 | 88 | 1012.7 |
| 20260505030504 | 52 | 229 | 5.0 | 13.0 | 0.00 | 0.00 | 0.00 | 88 | 1012.7 |
| 20260505030026 | 52 | 229 | 3.0 | 15.0 | 0.00 | 0.00 | 0.00 | 88 | 1012.7 |
| 20260505025515 | 52 | 243 | 5.0 | 15.0 | 0.00 | 0.00 | 0.00 | 88 | 1012.8 |
| 20260505025055 | 52 | 229 | 3.0 | 11.0 | 0.00 | 0.00 | 0.00 | 88 | 1012.8 |
| 20260505024529 | 52 | 219 | 4.0 | 14.0 | 0.00 | 0.00 | 0.00 | 87 | 1012.8 |
| 20260505024018 | 52 | 223 | 2.0 | 13.0 | 0.00 | 0.00 | 0.00 | 87 | 1012.7 |
| 20260505023547 | 52 | 237 | 5.0 | 13.0 | 0.00 | 0.00 | 0.00 | 87 | 1012.7 |
| 20260505023005 | 52 | 233 | 4.0 | 13.0 | 0.00 | 0.00 | 0.00 | 87 | 1012.7 |
| 20260505022602 | 52 | 243 | 6.0 | 12.0 | 0.00 | 0.00 | 0.00 | 87 | 1012.8 |
| 20260505022033 | 52 | 227 | 2.0 | 15.0 | 0.00 | 0.00 | 0.00 | 86 | 1012.7 |
| 20260505021531 | 52 | 246 | 3.0 | 14.0 | 0.00 | 0.00 | 0.00 | 86 | 1012.7 |
| 20260505021051 | 53 | 217 | 5.0 | 14.0 | 0.00 | 0.00 | 0.00 | 86 | 1012.7 |
| 20260505020513 | 52 | 233 | 7.0 | 15.0 | 0.00 | 0.00 | 0.00 | 86 | 1012.6 |
| 20260505020009 | 53 | 217 | 5.0 | 15.0 | 0.00 | 0.00 | 0.00 | 86 | 1012.6 |
| 20260505015538 | 53 | 217 | 5.0 | 16.0 | 0.00 | 0.00 | 0.00 | 85 | 1012.5 |
| 20260505015058 | 53 | 239 | 2.0 | 16.0 | 0.00 | 0.00 | 0.00 | 86 | 1012.5 |
| 20260505014601 | 53 | 230 | 7.0 | 15.0 | 0.00 | 0.00 | 0.00 | 86 | 1012.4 |
| 20260505014013 | 53 | 209 | 5.0 | 15.0 | 0.00 | 0.00 | 0.00 | 86 | 1012.3 |
| 20260505013557 | 53 | 213 | 4.0 | 13.0 | 0.00 | 0.00 | 0.00 | 86 | 1012.3 |
| 20260505013052 | 53 | 219 | 4.0 | 16.0 | 0.00 | 0.00 | 0.00 | 86 | 1012.2 |
| 20260505012520 | 53 | 240 | 8.0 | 16.0 | 0.00 | 0.00 | 0.00 | 86 | 1012.1 |
| 20260505012011 | 53 | 238 | 5.0 | 14.0 | 0.00 | 0.00 | 0.00 | 86 | 1012.1 |
| 20260505011556 | 53 | 226 | 5.0 | 15.0 | 0.00 | 0.00 | 0.00 | 87 | 1012.1 |
| 20260505011049 | 53 | 233 | 8.0 | 15.0 | 0.00 | 0.00 | 0.00 | 87 | 1012.0 |
| 20260505010520 | 53 | 246 | 4.0 | 15.0 | 0.00 | 0.00 | 0.00 | 87 | 1011.9 |
| 20260505005531 | 53 | 226 | 2.0 | 11.0 | 0.00 | 0.00 | 0.00 | 87 | 1011.9 |
| 20260505005108 | 52 | 229 | 2.0 | 11.0 | 0.00 | 0.00 | 0.00 | 87 | 1011.7 |
| 20260505004551 | 52 | 231 | 3.0 | 13.0 | 0.00 | 0.00 | 0.00 | 87 | 1011.7 |
| 20260505004021 | 52 | 214 | 3.0 | 12.0 | 0.00 | 0.00 | 0.00 | 87 | 1011.6 |
| 20260505003559 | 52 | 223 | 5.0 | 12.0 | 0.00 | 0.00 | 0.00 | 86 | 1011.5 |
| 20260505003051 | 53 | 250 | 4.0 | 15.0 | 0.00 | 0.00 | 0.00 | 86 | 1011.4 |
| 20260505002553 | 53 | 213 | 2.0 | 13.0 | 0.00 | 0.00 | 0.00 | 87 | 1011.3 |
| 20260505002004 | 52 | 239 | 4.0 | 11.0 | 0.00 | 0.00 | 0.00 | 86 | 1011.2 |
| 20260505001548 | 53 | 238 | 2.0 | 13.0 | 0.00 | 0.00 | 0.00 | 86 | 1011.2 |
| 20260505001021 | 53 | 221 | 5.0 | 16.0 | 0.00 | 0.00 | 0.00 | 86 | 1011.1 |
| 20260505000542 | 53 | 231 | 2.0 | 16.0 | 0.00 | 0.00 | 0.00 | 86 | 1011.0 |
| 20260505000035 | 53 | 219 | 7.0 | 16.0 | 0.00 | 0.00 | 0.00 | 85 | 1010.9 |
| 20260504235600 | 53 | 220 | 5.0 | 16.0 | 0.00 | 0.00 | 0.00 | 85 | 1010.9 |
| 20260504235034 | 53 | 230 | 6.0 | 13.0 | 0.00 | 0.00 | 0.00 | 85 | 1010.9 |
| 20260504234605 | 53 | 233 | 3.0 | 15.0 | 0.00 | 0.00 | 0.00 | 85 | 1010.9 |
| 20260504234007 | 53 | 237 | 6.0 | 15.0 | 0.00 | 0.00 | 0.00 | 84 | 1010.7 |
| 20260504233553 | 53 | 227 | 4.0 | 12.0 | 0.00 | 0.00 | 0.00 | 84 | 1010.7 |
| 20260504233013 | 53 | 219 | 4.0 | 13.0 | 0.00 | 0.00 | 0.00 | 84 | 1010.7 |
| 20260504232557 | 53 | 221 | 4.0 | 19.0 | 0.00 | 0.00 | 0.00 | 84 | 1010.6 |
| 20260504232038 | 53 | 234 | 7.0 | 16.0 | 0.00 | 0.00 | 0.00 | 84 | 1010.6 |
| 20260504231559 | 53 | 237 | 7.0 | 16.0 | 0.00 | 0.00 | 0.00 | 84 | 1010.5 |
| 20260504231027 | 53 | 201 | 8.0 | 19.0 | 0.00 | 0.00 | 0.00 | 84 | 1010.4 |
| 20260504230519 | 53 | 223 | 10.0 | 19.0 | 0.00 | 0.00 | 0.00 | 83 | 1010.4 |
| 20260504230046 | 53 | 217 | 9.0 | 18.0 | 0.00 | 0.00 | 0.00 | 83 | 1010.3 |
| 20260504225519 | 53 | 227 | 8.0 | 20.0 | 0.00 | 0.00 | 0.00 | 83 | 1010.3 |
| 20260504225105 | 53 | 221 | 10.0 | 23.0 | 0.00 | 0.00 | 0.00 | 83 | 1010.2 |
| 20260504224521 | 53 | 238 | 11.0 | 23.0 | 0.00 | 0.00 | 0.00 | 83 | 1010.3 |
| 20260504224016 | 53 | 224 | 11.0 | 24.0 | 0.00 | 0.00 | 0.00 | 83 | 1010.3 |
| 20260504223545 | 53 | 217 | 13.0 | 24.0 | 0.00 | 0.00 | 0.00 | 83 | 1010.2 |
| 20260504223125 | 53 | 238 | 13.0 | 22.0 | 0.00 | 0.00 | 0.00 | 83 | 1010.2 |
| 20260504222540 | 53 | 237 | 14.0 | 23.0 | 0.00 | 0.00 | 0.00 | 83 | 1010.4 |
| 20260504222100 | 53 | 202 | 13.0 | 24.0 | 0.00 | 0.00 | 0.00 | 83 | 1010.3 |
| 20260504221510 | 54 | 210 | 14.0 | 24.0 | 0.00 | 0.00 | 0.00 | 82 | 1010.3 |
| 20260504221054 | 54 | 249 | 12.0 | 22.0 | 0.00 | 0.00 | 0.00 | 82 | 1010.3 |
| 20260504220504 | 54 | 218 | 13.0 | 21.0 | 0.00 | 0.00 | 0.00 | 82 | 1010.3 |
| 20260504220024 | 54 | 217 | 14.0 | 22.0 | 0.00 | 0.00 | 0.00 | 82 | 1010.5 |
| 20260504215552 | 54 | 222 | 13.0 | 23.0 | 0.00 | 0.00 | 0.00 | 82 | 1010.5 |
| 20260504215022 | 54 | 232 | 13.0 | 21.0 | 0.00 | 0.00 | 0.00 | 83 | 1010.5 |
| 20260504214538 | 54 | 211 | 10.0 | 20.0 | 0.00 | 0.00 | 0.00 | 84 | 1010.5 |
| 20260504214014 | 54 | 217 | 12.0 | 22.0 | 0.00 | 0.00 | 0.00 | 83 | 1010.6 |
| 20260504213537 | 54 | 222 | 12.0 | 22.0 | 0.00 | 0.00 | 0.00 | 83 | 1010.6 |
| 20260504213013 | 54 | 212 | 13.0 | 21.0 | 0.00 | 0.00 | 0.00 | 83 | 1010.6 |
| 20260504212526 | 54 | 217 | 15.0 | 21.0 | 0.00 | 0.00 | 0.00 | 82 | 1010.5 |
| 20260504212050 | 54 | 223 | 14.0 | 21.0 | 0.00 | 0.00 | 0.00 | 82 | 1010.5 |
| 20260504211534 | 54 | 226 | 15.0 | 22.0 | 0.00 | 0.00 | 0.00 | 82 | 1010.5 |
| 20260504211104 | 54 | 219 | 15.0 | 22.0 | 0.00 | 0.00 | 0.00 | 83 | 1010.5 |
| 20260504210513 | 54 | 221 | 11.0 | 22.0 | 0.00 | 0.00 | 0.00 | 83 | 1010.4 |
| 20260504210036 | 54 | 219 | 14.0 | 22.0 | 0.00 | 0.00 | 0.00 | 83 | 1010.4 |
| 20260504205554 | 54 | 234 | 13.0 | 23.0 | 0.00 | 0.00 | 0.00 | 83 | 1010.4 |
| 20260504205048 | 54 | 228 | 14.0 | 23.0 | 0.00 | 0.00 | 0.00 | 83 | 1010.4 |
| 20260504204507 | 53 | 215 | 14.0 | 23.0 | 0.00 | 0.00 | 0.00 | 84 | 1010.3 |
| 20260504204053 | 54 | 225 | 13.0 | 23.0 | 0.00 | 0.00 | 0.00 | 84 | 1010.3 |
| 20260504203507 | 53 | 232 | 16.0 | 24.0 | 0.00 | 0.00 | 0.00 | 84 | 1010.1 |
| 20260504203156 | 53 | 215 | 15.0 | 24.0 | 0.00 | 0.00 | 0.00 | 84 | 1010.1 |
| 20260504202531 | 54 | 219 | 15.0 | 25.0 | 0.00 | 0.00 | 0.00 | 84 | 1010.1 |
| 20260504202100 | 53 | 224 | 18.0 | 25.0 | 0.00 | 0.00 | 0.00 | 84 | 1010.3 |
| 20260504201534 | 54 | 213 | 15.0 | 26.0 | 0.00 | 0.00 | 0.00 | 84 | 1010.1 |
| 20260504201054 | 53 | 235 | 16.0 | 26.0 | 0.00 | 0.00 | 0.00 | 84 | 1010.1 |
| 20260504200504 | 54 | 226 | 16.0 | 24.0 | 0.00 | 0.00 | 0.00 | 84 | 1010.1 |
| 20260504200024 | 54 | 210 | 16.0 | 25.0 | 0.00 | 0.00 | 0.00 | 84 | 1010.2 |
| 20260504195545 | 54 | 229 | 18.0 | 25.0 | 0.00 | 0.00 | 0.00 | 84 | 1010.1 |
| 20260504195029 | 54 | 208 | 18.0 | 25.0 | 0.00 | 0.00 | 0.00 | 84 | 1010.1 |
| 20260504194559 | 54 | 198 | 15.0 | 22.0 | 0.00 | 0.00 | 0.00 | 84 | 1010.0 |
| 20260504194008 | 54 | 222 | 15.0 | 22.0 | 0.00 | 0.00 | 0.00 | 84 | 1010.1 |
| 20260504193528 | 54 | 231 | 14.0 | 22.0 | 0.00 | 0.00 | 0.00 | 83 | 1010.1 |
| 20260504193049 | 54 | 232 | 14.0 | 22.0 | 0.00 | 0.00 | 0.00 | 84 | 1010.1 |
| 20260504192608 | 54 | 234 | 16.0 | 22.0 | 0.00 | 0.00 | 0.00 | 84 | 1010.1 |
| 20260504192017 | 54 | 223 | 15.0 | 23.0 | 0.00 | 0.00 | 0.00 | 84 | 1010.3 |
| 20260504191612 | 54 | 228 | 15.0 | 23.0 | 0.00 | 0.00 | 0.00 | 84 | 1010.2 |
| 20260504191008 | 54 | 217 | 15.0 | 23.0 | 0.00 | 0.00 | 0.00 | 84 | 1010.2 |
| 20260504190551 | 54 | 218 | 15.0 | 25.0 | 0.00 | 0.00 | 0.00 | 84 | 1010.3 |
| 20260504190016 | 54 | 219 | 17.0 | 27.0 | 0.00 | 0.00 | 0.00 | 84 | 1010.3 |
| 20260504185535 | 54 | 214 | 17.0 | 26.0 | 0.00 | 0.00 | 0.00 | 84 | 1010.3 |
| 20260504185058 | 54 | 212 | 17.0 | 25.0 | 0.00 | 0.00 | 0.00 | 85 | 1010.3 |
| 20260504184506 | 54 | 231 | 16.0 | 25.0 | 0.00 | 0.00 | 0.00 | 85 | 1010.2 |
| 20260504184026 | 53 | 219 | 16.0 | 24.0 | 0.00 | 0.00 | 0.00 | 86 | 1010.2 |
| 20260504183555 | 53 | 226 | 16.0 | 25.0 | 0.00 | 0.00 | 0.00 | 86 | 1010.2 |
| 20260504183020 | 54 | 226 | 17.0 | 24.0 | 0.00 | 0.00 | 0.00 | 85 | 1010.1 |
| 20260504182502 | 54 | 238 | 17.0 | 25.0 | 0.00 | 0.00 | 0.00 | 85 | 1010.0 |
| 20260504182031 | 54 | 211 | 17.0 | 25.0 | 0.00 | 0.00 | 0.00 | 85 | 1009.9 |
| 20260504181600 | 54 | 215 | 17.0 | 26.0 | 0.00 | 0.00 | 0.00 | 85 | 1009.9 |
| 20260504181026 | 54 | 206 | 18.0 | 26.0 | 0.00 | 0.00 | 0.00 | 84 | 1010.0 |
| 20260504180610 | 54 | 221 | 16.0 | 23.0 | 0.00 | 0.00 | 0.00 | 84 | 1010.1 |
| 20260504180038 | 54 | 216 | 16.0 | 23.0 | 0.00 | 0.00 | 0.00 | 84 | 1010.1 |
| 20260504175532 | 54 | 236 | 15.0 | 24.0 | 0.00 | 0.02 | 0.00 | 82 | 1010.3 |
| 20260504175103 | 54 | 219 | 17.0 | 24.0 | 0.00 | 0.02 | 0.00 | 82 | 1010.3 |
| 20260504174512 | 54 | 212 | 15.0 | 23.0 | 0.00 | 0.02 | 0.00 | 82 | 1010.3 |
| 20260504174038 | 54 | 218 | 15.0 | 22.0 | 0.00 | 0.02 | 0.00 | 82 | 1010.3 |
| 20260504173524 | 54 | 214 | 15.0 | 22.0 | 0.00 | 0.02 | 0.00 | 83 | 1010.2 |
| 20260504173002 | 54 | 224 | 15.0 | 22.0 | 0.00 | 0.02 | 0.00 | 82 | 1010.2 |
| 20260504172522 | 54 | 215 | 14.0 | 22.0 | 0.00 | 0.02 | 0.00 | 82 | 1010.2 |
| 20260504172042 | 54 | 217 | 14.0 | 22.0 | 0.00 | 0.02 | 0.00 | 82 | 1010.3 |
| 20260504171516 | 54 | 227 | 12.0 | 24.0 | 0.00 | 0.02 | 0.00 | 82 | 1010.5 |
| 20260504171100 | 54 | 215 | 16.0 | 24.0 | 0.00 | 0.02 | 0.00 | 82 | 1010.4 |
| 20260504170510 | 55 | 215 | 13.0 | 20.0 | 0.00 | 0.02 | 0.00 | 82 | 1010.4 |
| 20260504170140 | 55 | 228 | 12.0 | 20.0 | 0.00 | 0.02 | 0.00 | 82 | 1010.5 |
| 20260504151015 | 56 | 240 | 7.0 | 14.0 | 0.00 | 0.14 | 0.00 | 72 | 1011.2 |
| 20260504150510 | 55 | 222 | 4.0 | 13.0 | 0.00 | 0.14 | 0.00 | 76 | 1011.2 |
| 20260504141048 | 55 | 218 | 8.0 | 15.0 | 0.00 | 0.14 | 0.00 | 73 | 1011.4 |
| 20260504140609 | 55 | 205 | 6.0 | 15.0 | 0.00 | 0.14 | 0.00 | 74 | 1011.5 |